Watsonville, CA

9:40 PM PDT on March 22, 2017 (GMT -0700)
Watsonville Municipal

Weather History for KWVI - April, 2013

Change the Weather History Date:

Sunday, April 28, 2013

  Actual Average Record
Temperature  
Mean Temperature 57 °F 57 °F  
Max Temperature 67 °F 68 °F 73 °F (2007)
Min Temperature 47 °F 46 °F 35 °F (1999)
Degree Days  
Heating Degree Days 8    
Month to date heating degree days 225  
Since 1 July heating degree days 2744  
Cooling Degree Days 0    
Month to date cooling degree days 0  
Year to date cooling degree days 0  
Growing Degree Days 7 (Base 50)    
Moisture  
Dew Point 48 °F    
Average Humidity 79    
Maximum Humidity 100    
Minimum Humidity 58    
Precipitation  
Precipitation 0.00 in - 2.85 in (1983)
Month to date precipitation 0.59  
Year to date precipitation 2.33  
Since 1 July precipitation 13.27  
Sea Level Pressure  
Sea Level Pressure 30.04 in    
Wind  
Wind Speed 3 mph (SSE)    
Max Wind Speed 10 mph    
Max Gust Speed 14 mph    
Visibility 5 miles    
Events Fog    
T = Trace of Precipitation, MM = Missing Value Source: NWS Daily Summary

Daily Weather History Graph

Daily Weather History Graph

Search for Another Location

Airport or City:

Trip Planner

Search our weather history database for the weather conditions in past years. The results will help you decide how hot, cold, wet, or windy it might be!

Date:

Astronomy

Apr. 28, 2013 Rise Set
Actual Time 6:16 AM PDT 7:53 PM PDT
Civil Twilight 5:48 AM PDT 8:21 PM PDT
Nautical Twilight 5:15 AM PDT 8:54 PM PDT
Astronomical Twilight 4:39 AM PDT 9:30 PM PDT
Moon 11:26 PM PDT (4/28) 8:40 AM PDT (4/28)
Length of Visible Light 14h 33m
Length of Day
13h 37m
Waning Gibbous, 88% of the Moon is Illuminated
Apr 28
Waning Gibbous
May 2
Last Quarter
May 9
New
May 17
First Quarter
May 24
Full

Hourly Weather History & Observations

Time (PDT) Temp. Dew Point Humidity Pressure Visibility Wind Dir Wind Speed Gust Speed Precip Events Conditions
12:53 AM 48.9 °F 48.0 °F 97% 30.11 in 2.5 mi Calm Calm - N/A   Overcast
1:05 AM 48.2 °F 48.2 °F 100% 30.11 in 1.2 mi Calm Calm - N/A   Overcast
1:11 AM 50.0 °F 48.2 °F 94% 30.11 in 2.0 mi Calm Calm - N/A   Overcast
1:25 AM 48.2 °F 48.2 °F 100% 30.10 in 3.0 mi Calm Calm - N/A   Overcast
1:40 AM 48.2 °F 48.2 °F 100% 30.10 in 1.5 mi Calm Calm - N/A   Overcast
1:48 AM 48.2 °F 48.2 °F 100% 30.10 in 1.0 mi Calm Calm - N/A   Overcast
1:53 AM 48.9 °F 48.0 °F 97% 30.10 in 0.8 mi Calm Calm - N/A   Mist
2:53 AM 48.0 °F 46.9 °F 96% 30.09 in 0.8 mi Calm Calm - N/A   Mist
3:27 AM 48.2 °F 46.4 °F 93% 30.08 in 0.2 mi Calm Calm - N/A Fog Fog
3:40 AM 48.2 °F 46.4 °F 93% 30.08 in 0.5 mi Calm Calm - N/A Fog Fog
3:53 AM 48.0 °F 46.9 °F 96% 30.08 in 0.5 mi Calm Calm - N/A Fog Fog
4:07 AM 48.2 °F 46.4 °F 93% 30.07 in 0.2 mi Calm Calm - N/A Fog Fog
4:15 AM 48.2 °F 46.4 °F 93% 30.07 in 0.5 mi Calm Calm - N/A Fog Fog
4:53 AM 48.0 °F 46.9 °F 96% 30.07 in 0.8 mi Calm Calm - N/A   Mist
6:53 AM 48.0 °F 46.9 °F 96% 30.07 in 0.2 mi Calm Calm - N/A Fog Fog
7:46 AM 48.2 °F 46.4 °F 93% 30.08 in 0.5 mi Calm Calm - N/A Fog Fog
7:53 AM 48.0 °F 46.9 °F 96% 30.08 in 0.8 mi Calm Calm - N/A   Mist
8:17 AM 48.2 °F 46.4 °F 93% 30.08 in 1.0 mi Calm Calm - N/A   Overcast
8:40 AM 48.2 °F 46.4 °F 93% 30.07 in 1.2 mi Calm Calm - N/A   Overcast
8:53 AM 48.0 °F 46.9 °F 96% 30.07 in 0.5 mi Calm Calm - N/A Fog Fog
9:03 AM 48.2 °F 46.4 °F 93% 30.07 in 1.5 mi Calm Calm - N/A   Overcast
9:12 AM 48.2 °F 46.4 °F 93% 30.07 in 2.5 mi Calm Calm - N/A   Overcast
9:20 AM 48.2 °F 46.4 °F 93% 30.07 in 3.0 mi Calm Calm - N/A   Overcast
9:53 AM 48.9 °F 48.0 °F 97% 30.07 in 6.0 mi Calm Calm - N/A   Overcast
10:49 AM 53.6 °F 48.2 °F 82% 30.07 in 10.0 mi Calm Calm - N/A   Overcast
10:53 AM 54.0 °F 48.9 °F 83% 30.07 in 10.0 mi Calm Calm - N/A   Overcast
11:27 AM 57.2 °F 50.0 °F 77% 30.06 in 10.0 mi SE 3.5 mph - N/A   Scattered Clouds
11:53 AM 60.1 °F 51.1 °F 72% 30.06 in 10.0 mi Calm Calm - N/A   Clear
12:53 PM 62.1 °F 51.1 °F 67% 30.04 in 10.0 mi South 9.2 mph - N/A   Clear
1:53 PM 63.0 °F 51.1 °F 65% 30.02 in 10.0 mi South 6.9 mph - N/A   Clear
2:53 PM 64.9 °F 51.1 °F 61% 29.99 in 10.0 mi South 6.9 mph - N/A   Clear
3:53 PM 66.0 °F 51.1 °F 59% 29.96 in 10.0 mi SSE 8.1 mph - N/A   Clear
4:53 PM 64.9 °F 50.0 °F 58% 29.95 in 10.0 mi SSE 6.9 mph - N/A   Clear
5:53 PM 63.0 °F 48.9 °F 60% 29.93 in 10.0 mi South 5.8 mph - N/A   Clear
6:53 PM 55.9 °F 48.9 °F 77% 29.93 in 10.0 mi SSE 9.2 mph - N/A   Clear
7:53 PM 53.1 °F 48.9 °F 86% 29.93 in 9.0 mi SE 4.6 mph - N/A   Clear
8:53 PM 51.1 °F 48.0 °F 89% 29.94 in 10.0 mi Calm Calm - N/A   Clear
9:53 PM 51.1 °F 48.0 °F 89% 29.94 in 9.0 mi Calm Calm - N/A   Clear
10:53 PM 51.1 °F 48.0 °F 89% 29.93 in 9.0 mi Calm Calm - N/A   Clear
11:53 PM 50.0 °F 46.9 °F 89% 29.92 in 10.0 mi Calm Calm - N/A   Clear